TimeCDT,TemperatureF,Dew PointF,Humidity,Sea Level PressureIn,VisibilityMPH,Wind Direction,Wind SpeedMPH,Gust SpeedMPH,PrecipitationIn,Events,Conditions,WindDirDegrees,DateUTC
12:15 AM,69.8,67.3,92,30.01,4.0,SSW,5.8,-,N/A,,Clear,200,2013-10-02 05:15:00
12:35 AM,69.8,67.5,92,30.01,4.0,SSW,6.9,-,N/A,,Clear,200,2013-10-02 05:35:00
12:55 AM,69.3,67.1,93,30.02,3.0,SSW,4.6,-,N/A,,Clear,200,2013-10-02 05:55:00
1:15 AM,68.9,67.1,94,30.02,3.0,SSW,4.6,-,N/A,,Clear,200,2013-10-02 06:15:00
1:35 AM,68.7,67.1,95,30.03,3.0,SSW,4.6,-,N/A,,Clear,200,2013-10-02 06:35:00
1:55 AM,68.4,66.7,95,30.03,2.5,SSW,3.5,-,N/A,,Clear,200,2013-10-02 06:55:00
2:15 AM,67.6,66.2,95,30.03,2.5,SSW,3.5,-,N/A,,Clear,210,2013-10-02 07:15:00
2:35 AM,67.1,65.5,95,30.03,2.0,SW,3.5,-,N/A,,Clear,220,2013-10-02 07:35:00
2:55 AM,66.6,65.3,96,30.03,2.0,SSW,3.5,-,N/A,,Clear,210,2013-10-02 07:55:00
3:15 AM,65.5,64.4,96,30.03,1.5,Calm,Calm,-,N/A,,Mist,0,2013-10-02 08:15:00
3:35 AM,66.2,65.1,96,30.03,1.8,Calm,Calm,-,N/A,,Mist,0,2013-10-02 08:35:00
3:55 AM,66.0,64.9,96,30.03,1.8,Calm,Calm,-,N/A,,Mist,0,2013-10-02 08:55:00
4:15 AM,62.6,61.3,96,30.04,0.2,Calm,Calm,-,N/A,Fog,Fog,0,2013-10-02 09:15:00
4:35 AM,60.6,59.5,96,30.04,0.2,Calm,Calm,-,N/A,Fog,Fog,0,2013-10-02 09:35:00
4:55 AM,62.1,61.2,97,30.04,0.2,Calm,Calm,-,N/A,Fog,Fog,0,2013-10-02 09:55:00
5:15 AM,59.0,58.1,97,30.05,0.2,Calm,Calm,-,N/A,Fog,Fog,0,2013-10-02 10:15:00
5:35 AM,60.3,59.5,97,30.04,0.2,Calm,Calm,-,N/A,Fog,Fog,0,2013-10-02 10:35:00
5:55 AM,59.5,59.0,98,30.05,0.2,SW,3.5,-,N/A,Fog,Fog,220,2013-10-02 10:55:00
6:15 AM,59.4,58.6,97,30.05,0.2,South,3.5,-,N/A,Fog,Fog,180,2013-10-02 11:15:00
6:35 AM,59.0,58.3,97,30.05,0.2,South,3.5,-,N/A,Fog,Fog,190,2013-10-02 11:35:00
6:55 AM,58.3,57.6,97,30.06,0.2,Calm,Calm,-,N/A,Fog,Fog,0,2013-10-02 11:55:00
7:15 AM,58.1,57.6,98,30.06,0.2,Calm,Calm,-,N/A,Fog,Fog,0,2013-10-02 12:15:00
7:35 AM,58.5,57.9,98,30.07,0.2,Calm,Calm,-,N/A,Fog,Fog,0,2013-10-02 12:35:00
7:55 AM,60.1,59.4,97,30.07,0.2,Calm,Calm,-,N/A,Fog,Fog,0,2013-10-02 12:55:00
8:15 AM,61.7,61.2,98,30.08,0.2,Calm,Calm,-,N/A,Fog,Fog,0,2013-10-02 13:15:00
8:35 AM,63.7,63.0,97,30.08,0.2,Calm,Calm,-,N/A,Fog,Fog,0,2013-10-02 13:35:00
8:55 AM,65.1,64.4,98,30.08,0.2,Calm,Calm,-,N/A,Fog,Fog,0,2013-10-02 13:55:00
9:15 AM,66.6,65.8,98,30.08,0.5,Calm,Calm,-,N/A,Fog,Fog,0,2013-10-02 14:15:00
9:35 AM,68.7,68.0,98,30.08,7.0,Calm,Calm,-,N/A,,Scattered Clouds,0,2013-10-02 14:35:00
9:55 AM,70.2,69.4,98,30.08,10.0,Calm,Calm,-,N/A,,Clear,0,2013-10-02 14:55:00
10:15 AM,72.5,70.7,94,30.08,10.0,Calm,Calm,-,N/A,,Scattered Clouds,0,2013-10-02 15:15:00
10:35 AM,76.1,66.9,73,30.08,10.0,Calm,Calm,-,N/A,,Scattered Clouds,0,2013-10-02 15:35:00
10:55 AM,77.5,66.6,69,30.08,10.0,SE,4.6,-,N/A,,Clear,130,2013-10-02 15:55:00
11:15 AM,79.5,64.4,60,30.07,10.0,Calm,Calm,-,N/A,,Clear,0,2013-10-02 16:15:00
11:35 AM,81.1,63.1,54,30.07,10.0,ESE,4.6,-,N/A,,Clear,110,2013-10-02 16:35:00
11:55 AM,82.6,63.0,51,30.07,10.0,SSE,4.6,-,N/A,,Clear,150,2013-10-02 16:55:00
12:15 PM,83.8,61.3,47,30.06,10.0,SE,3.5,-,N/A,,Clear,130,2013-10-02 17:15:00
12:35 PM,84.6,60.6,44,30.05,10.0,South,6.9,-,N/A,,Clear,170,2013-10-02 17:35:00
12:55 PM,85.1,61.0,44,30.05,10.0,East,6.9,-,N/A,,Scattered Clouds,100,2013-10-02 17:55:00
1:15 PM,85.3,60.4,43,30.04,10.0,ESE,6.9,-,N/A,,Scattered Clouds,120,2013-10-02 18:15:00
1:35 PM,84.9,60.1,43,30.03,10.0,East,8.1,-,N/A,,Mostly Cloudy,80,2013-10-02 18:35:00
1:55 PM,87.3,60.6,41,30.02,10.0,SE,9.2,-,N/A,,Mostly Cloudy,140,2013-10-02 18:55:00
2:15 PM,85.8,63.0,46,30.01,10.0,South,9.2,-,N/A,,Mostly Cloudy,180,2013-10-02 19:15:00
2:35 PM,86.4,61.0,42,30.01,10.0,South,9.2,-,N/A,,Scattered Clouds,190,2013-10-02 19:35:00
2:55 PM,86.9,59.0,39,30.00,10.0,South,8.1,-,N/A,,Scattered Clouds,180,2013-10-02 19:55:00
3:15 PM,86.0,58.8,40,30.00,10.0,SE,6.9,-,N/A,,Clear,140,2013-10-02 20:15:00
3:35 PM,86.7,58.8,39,30.00,10.0,SE,8.1,-,N/A,,Scattered Clouds,130,2013-10-02 20:35:00
3:55 PM,86.0,58.8,40,29.99,10.0,SSE,5.8,-,N/A,,Scattered Clouds,160,2013-10-02 20:55:00
4:15 PM,85.6,59.0,40,29.98,10.0,SSE,3.5,-,N/A,,Clear,150,2013-10-02 21:15:00
4:35 PM,85.5,58.1,39,29.97,10.0,South,8.1,-,N/A,,Clear,190,2013-10-02 21:35:00
4:55 PM,85.5,58.5,40,29.97,10.0,SSE,5.8,-,N/A,,Clear,150,2013-10-02 21:55:00
5:15 PM,84.4,58.6,42,29.97,10.0,SSE,6.9,-,N/A,,Clear,150,2013-10-02 22:15:00
5:35 PM,83.8,60.4,45,29.98,10.0,SSE,4.6,-,N/A,,Clear,160,2013-10-02 22:35:00
5:55 PM,82.2,60.4,48,29.99,10.0,SSE,4.6,-,N/A,,Clear,150,2013-10-02 22:55:00
6:15 PM,79.5,60.8,53,29.98,10.0,SSE,4.6,-,N/A,,Clear,150,2013-10-02 23:15:00
6:35 PM,76.5,61.9,61,29.99,10.0,SSE,5.8,-,N/A,,Clear,150,2013-10-02 23:35:00
6:55 PM,74.5,62.2,66,29.98,10.0,SSE,4.6,-,N/A,,Clear,150,2013-10-02 23:55:00
7:15 PM,72.3,62.4,71,29.98,10.0,SE,3.5,-,N/A,,Clear,130,2013-10-03 00:15:00
7:35 PM,69.3,61.9,77,29.98,10.0,Calm,Calm,-,N/A,,Clear,0,2013-10-03 00:35:00
7:55 PM,68.0,60.8,78,29.98,10.0,Calm,Calm,-,N/A,,Clear,0,2013-10-03 00:55:00
8:15 PM,66.7,60.4,80,29.97,10.0,East,3.5,-,N/A,,Clear,90,2013-10-03 01:15:00
8:35 PM,66.9,61.5,83,29.97,10.0,ESE,4.6,-,N/A,,Clear,120,2013-10-03 01:35:00
8:55 PM,66.6,61.3,83,29.97,10.0,SE,4.6,-,N/A,,Clear,130,2013-10-03 01:55:00
9:15 PM,66.7,62.6,86,29.97,10.0,SSE,4.6,-,N/A,,Clear,150,2013-10-03 02:15:00
9:35 PM,67.8,64.0,88,29.97,10.0,SSE,4.6,-,N/A,,Clear,150,2013-10-03 02:35:00
9:55 PM,71.1,65.3,82,29.98,10.0,SSE,3.5,-,N/A,,Clear,150,2013-10-03 02:55:00
10:15 PM,71.6,66.0,82,29.97,10.0,South,4.6,-,N/A,,Clear,170,2013-10-03 03:15:00
10:35 PM,71.1,66.4,85,29.98,10.0,South,3.5,-,N/A,,Clear,170,2013-10-03 03:35:00
10:55 PM,71.1,67.1,87,29.98,10.0,SSE,4.6,-,N/A,,Clear,160,2013-10-03 03:55:00
11:15 PM,70.7,67.1,88,29.98,10.0,South,3.5,-,N/A,,Clear,170,2013-10-03 04:15:00
11:35 PM,70.7,67.3,89,29.98,7.0,SSE,3.5,-,N/A,,Scattered Clouds,150,2013-10-03 04:35:00
11:55 PM,69.8,67.1,91,29.97,7.0,SSE,3.5,-,N/A,,Mostly Cloudy,150,2013-10-03 04:55:00